Location: Gipe Farm
(40.9466°N, 95.5370°W)
Time: 01:15:20
(UTC-05:00)

Cosmos 1842 - Visible Passes

Search period start: 31 August 2014 00:00
Search period end: 10 September 2014 00:00
Orbit: 537 x 556 km, 82.5° (Epoch: 30 August)

Date Brightness Start Highest point End Pass type
(mag) Time Alt. Az. Time Alt. Az. Time Alt. Az.
31 Aug 5.1 20:25:50 10° NE 20:28:06 15° ENE 20:30:22 10° ESE visible
31 Aug 4.6 22:00:57 10° NNW 22:04:37 37° W 22:06:22 24° SW visible
01 Sep 5.0 20:20:14 10° NNE 20:22:40 16° ENE 20:25:05 10° ESE visible
01 Sep 4.8 21:55:32 10° NNW 21:59:08 35° W 22:01:25 19° SSW visible
02 Sep 4.9 21:50:06 10° NNW 21:53:40 33° W 21:56:32 14° SSW visible
03 Sep 5.1 21:44:41 10° NNW 21:48:11 31° W 21:51:40 10° SSW visible
04 Sep 5.2 21:39:15 10° NNW 21:42:41 29° W 21:46:07 10° SSW visible
05 Sep 5.3 21:33:49 10° NNW 21:37:11 27° W 21:40:33 10° SSW visible
06 Sep 5.5 21:28:23 10° NNW 21:31:41 26° W 21:34:58 10° SSW visible
07 Sep 5.6 21:22:57 10° NW 21:26:10 24° W 21:29:23 10° SW visible
08 Sep 5.8 21:17:31 10° NW 21:20:39 23° W 21:23:47 10° SW visible
09 Sep 5.9 21:12:04 10° NW 21:15:07 22° W 21:18:10 10° SW visible
